GFSFLT2_850_temp_132.txt.gz
Temp
23 23 22 22 22 22 21 20 19 19 18 18 18 17 17 16 16 16 16 16 16 15 15 15 15 14 14 14 13 13 13 13
23 23 22 22 22 22 21 20 20 19 18 18 18 17 17 16 16 16 16 16 16 15 15 15 15 14 14 13 13 14 14 13
23 22 22 22 22 22 21 20 20 19 19 18 18 17 17 16 16 16 15 16 16 15 15 15 15 14 14 13 13 13 13 13
22 22 22 22 22 21 21 21 20 20 19 19 18 18 17 16 15 15 15 15 15 15 15 15 15 15 14 14 13 12 13 13
22 22 22 21 22 21 21 21 20 20 20 20 19 18 17 16 15 15 14 15 15 15 15 15 15 14 13 13 13 13 13 12
22 22 21 21 21 21 21 21 20 20 20 20 19 18 17 17 16 15 15 14 14 15 14 14 14 14 13 13 13 13 13 12
22 22 22 21 21 21 20 20 20 20 20 19 19 19 18 17 16 15 15 14 14 14 14 14 14 13 13 14 13 13 13 12
22 22 22 21 21 21 21 20 20 19 19 19 18 18 18 17 16 15 15 15 14 14 14 13 13 13 13 12 12 13 13 12
22 22 22 22 21 21 20 20 19 19 18 18 18 17 17 16 16 15 15 14 14 13 13 13 13 12 13 12 11 12 12 12
22 22 21 21 21 21 20 19 19 18 18 17 17 16 16 15 15 15 15 14 14 13 13 12 12 12 11 11 11 11 11 12
23 22 21 21 21 21 19 19 18 17 18 17 16 15 15 15 14 14 14 14 14 13 13 12 12 11 11 11 11 11 11 11
22 22 21 21 20 19 18 18 18 17 17 17 15 14 14 14 15 15 14 13 13 13 12 12 12 12 11 11 11 11 11 12
22 21 19 19 18 18 17 18 18 17 17 16 16 15 15 14 14 15 14 14 14 15 12 12 12 11 11 10 10 10 10 11
19 18 18 18 17 17 17 17 17 17 17 16 16 16 15 15 14 15 14 14 14 13 12 12 12 12 10 10 10 10 9 10
19 19 18 17 17 17 16 16 17 16 16 16 15 16 15 15 14 14 14 13 14 13 12 12 13 12 11 11 10 10 10 10
17 17 17 16 16 16 16 16 16 16 16 16 16 15 14 14 14 14 14 13 13 13 13 13 13 13 12 11 11 11 10 9
17 17 18 17 16 15 15 15 15 15 16 16 15 14 14 14 14 13 14 14 14 14 13 12 12 13 13 11 11 11 11 10
17 17 19 18 15 14 14 14 14 15 15 15 14 14 14 14 14 13 14 14 14 13 12 12 12 12 12 11 12 11 11 11
16 17 16 14 14 14 13 13 12 12 13 13 14 14 14 14 13 13 13 13 13 12 12 12 11 12 11 11 12 12 10 11
15 15 14 13 13 13 12 11 11 11 11 12 13 13 13 13 13 12 13 13 12 11 11 11 11 11 11 11 11 11 10 10

GFSFLT2_850_temp_135.txt.gz
Temp
23 23 23 22 22 22 21 20 19 19 19 18 18 17 17 17 17 17 17 17 16 15 14 14 14 14 13 14 13 14 14 14
23 23 23 22 22 21 21 20 20 19 19 19 18 17 17 16 16 16 16 16 16 16 14 14 14 14 14 13 13 14 14 14
23 23 22 22 22 21 20 20 20 19 19 19 18 17 17 16 16 16 16 16 16 16 14 15 15 15 14 14 14 13 14 13
22 22 22 22 21 21 20 20 20 19 19 19 18 18 17 17 16 16 15 16 16 15 15 14 14 14 14 14 15 14 13 13
23 22 22 22 21 21 20 20 20 19 19 19 19 18 17 17 16 15 15 15 15 15 15 14 14 14 14 14 14 14 13 13
23 22 22 22 21 21 21 20 20 19 19 19 19 18 17 17 16 16 15 15 15 15 15 15 14 14 14 13 13 12 13 13
23 22 22 21 21 21 21 20 20 19 19 18 18 18 18 17 16 15 15 14 14 15 15 14 14 14 13 13 12 11 12 13
22 22 22 21 21 21 21 20 20 20 19 19 18 18 17 17 16 15 15 15 14 14 14 14 14 13 13 12 12 12 12 13
21 22 21 21 21 21 20 20 20 20 19 19 18 18 17 17 16 15 15 15 14 14 14 13 13 13 13 13 12 12 11 12
21 21 21 21 21 21 21 20 20 19 19 18 18 17 17 16 16 15 15 15 14 14 13 13 13 13 13 13 12 12 11 12
22 21 21 22 21 21 20 19 18 18 18 17 17 17 16 16 16 15 15 14 14 14 13 13 12 12 12 12 11 11 11 11
22 22 22 22 21 20 19 18 18 17 17 17 16 16 16 15 15 14 15 14 14 13 13 12 12 12 12 11 11 10 10 10
21 22 22 22 21 20 19 19 18 18 18 17 16 15 15 14 15 14 15 15 15 15 13 12 12 12 11 10 10 10 9 10
22 21 22 21 21 20 19 19 18 18 17 17 17 16 16 15 15 15 15 14 14 14 14 12 12 12 11 10 9 9 9 10
20 21 21 19 19 19 18 18 17 17 17 17 16 16 15 15 15 14 15 14 15 15 14 14 13 12 11 11 10 10 10 10
17 17 17 17 17 16 16 17 17 17 17 17 16 16 15 14 14 14 14 14 14 15 14 14 14 13 11 10 11 11 10 9
16 16 16 16 17 17 17 16 16 16 16 16 15 15 14 14 14 14 13 13 14 14 14 13 13 13 13 13 11 10 11 11
16 16 16 16 15 16 17 15 15 14 14 15 14 14 14 14 14 14 14 13 13 13 13 13 13 14 13 13 13 11 11 11
15 15 13 14 14 14 14 14 14 14 14 14 13 13 13 14 13 13 14 13 13 13 13 13 13 13 13 13 13 13 11 11
14 15 15 14 14 15 15 14 13 13 12 12 12 12 13 13 13 13 13 14 13 13 13 13 13 12 12 12 12 12 12 11

GFSFLT2_850_temp_138.txt.gz
Temp
23 22 22 21 21 21 20 20 20 19 19 18 18 17 17 17 17 17 17 16 16 15 14 14 14 15 14 14 14 13 13 14
22 22 21 21 21 21 21 20 20 19 19 18 18 17 17 17 17 17 17 16 16 15 14 14 14 14 14 14 14 14 13 14
22 22 21 21 21 21 20 20 19 19 19 18 18 17 17 17 17 17 16 16 16 15 14 13 14 14 14 14 14 13 13 13
22 22 21 21 20 20 20 20 19 19 18 18 18 18 17 17 16 16 16 16 16 15 14 14 13 14 14 13 14 14 14 13
21 21 21 21 21 21 20 20 19 19 18 18 18 18 17 17 16 16 16 15 15 15 14 14 14 14 14 14 13 14 14 13
21 20 21 21 21 21 21 20 20 19 19 18 18 17 17 16 16 15 15 15 15 15 14 14 14 14 13 13 13 13 13 13
20 20 20 21 21 21 21 21 21 20 19 19 18 17 17 16 16 15 15 15 15 15 14 14 14 14 14 13 13 13 12 12
20 20 20 20 21 21 21 21 21 21 20 19 19 18 17 17 16 15 15 15 14 14 15 14 14 14 13 13 13 12 12 11
22 22 20 20 20 20 20 21 21 20 20 20 19 18 18 17 16 15 15 14 14 14 14 14 14 13 13 13 13 12 12 12
21 21 21 21 20 20 20 20 20 20 20 19 19 18 18 18 17 16 15 14 14 14 14 13 13 13 13 13 13 12 12 12
20 21 21 21 21 20 20 19 19 19 19 19 19 17 17 17 17 16 15 14 14 14 13 13 13 13 13 12 12 12 12 12
20 21 22 21 20 20 18 18 18 18 19 18 18 17 16 16 16 15 15 14 14 13 13 13 12 12 12 12 12 11 12 11
20 21 21 21 19 19 18 18 18 18 18 17 17 17 16 16 16 15 14 14 14 14 13 13 12 11 11 11 11 11 11 11
20 21 21 21 21 19 18 19 19 19 18 18 17 17 18 17 16 15 14 14 14 14 14 13 12 12 11 11 10 10 10 10
19 21 20 19 18 17 20 15 18 17 17 17 17 17 17 16 16 15 15 14 14 14 14 15 14 13 12 11 10 10 10 10
19 20 18 17 16 16 20 19 19 18 17 17 15 16 16 16 15 15 15 14 14 14 14 15 14 14 12 11 11 12 10 9
17 19 15 15 17 17 17 17 17 18 17 16 16 15 15 15 14 14 14 14 14 13 14 13 14 14 14 13 11 11 11 11
14 15 15 15 16 16 16 15 17 16 18 17 16 15 15 15 14 14 13 13 13 13 13 13 13 14 14 13 14 12 11 11
14 14 15 16 16 16 14 16 15 15 15 15 14 15 15 14 14 13 13 13 13 13 13 13 13 13 13 13 13 13 13 13
14 14 13 13 15 15 14 13 14 14 14 14 14 14 14 14 13 13 13 13 13 13 13 13 13 13 13 13 13 13 13 12

GFSFLT2_850_temp_144.txt.gz
Temp
22 21 20 19 19 19 19 18 18 17 18 18 18 18 18 17 17 17 17 17 17 16 16 15 15 15 15 15 15 14 14 14
22 21 20 19 19 19 19 19 18 18 17 17 17 17 17 17 17 17 17 17 17 16 16 15 15 15 15 14 14 14 14 14
22 21 21 20 19 18 18 18 18 17 17 17 17 16 16 17 17 17 17 17 16 16 15 15 14 14 14 14 14 14 13 13
22 21 21 20 19 19 18 17 17 17 17 17 16 14 14 15 16 16 16 16 16 15 15 14 14 13 14 14 13 13 13 13
21 21 21 20 20 19 18 15 15 15 14 15 16 14 14 14 14 16 16 15 15 15 14 13 13 14 13 13 13 13 13 13
18 21 21 20 20 19 18 18 16 14 15 15 17 17 16 14 14 14 14 15 13 13 13 13 13 13 13 13 13 13 13 12
17 20 21 20 20 19 19 19 18 15 15 18 17 17 16 15 14 14 14 14 14 13 14 13 13 13 13 13 12 13 12 13
17 19 21 21 20 20 19 19 19 18 16 19 18 17 16 17 14 14 14 14 14 14 14 14 13 13 13 12 13 13 13 13
18 17 19 20 21 21 20 19 19 19 18 20 19 19 18 17 14 14 14 13 13 13 13 13 13 13 13 12 13 12 12 13
18 17 16 18 19 20 20 20 20 19 17 17 20 19 18 18 16 14 14 13 13 13 13 13 13 13 13 13 13 13 12 12
17 17 16 18 19 19 19 19 19 19 19 19 18 19 19 18 16 16 14 13 13 13 13 12 14 13 13 13 13 13 12 12
16 16 17 16 18 18 17 16 15 15 15 15 16 19 19 18 18 17 16 13 13 13 13 12 12 13 13 13 12 12 12 12
16 17 17 16 16 15 15 15 16 14 15 15 14 18 19 19 18 14 14 13 13 13 13 13 12 13 12 12 12 11 11 11
13 15 16 16 16 16 16 15 15 15 14 14 14 13 17 18 17 13 13 13 13 13 13 13 12 13 12 11 11 11 11 11
11 13 15 15 16 16 16 15 14 13 13 13 13 14 14 17 16 13 15 12 13 12 13 13 13 12 12 12 11 11 11 11
10 11 13 15 15 15 16 15 14 14 13 13 12 13 16 17 16 15 16 16 12 13 12 13 12 12 12 12 12 13 13 12
9 10 12 13 14 14 14 15 14 13 12 12 12 12 13 13 14 15 16 16 15 12 12 12 13 12 12 11 12 12 13 15
7 8 10 10 12 13 13 14 13 13 12 13 12 13 13 13 13 13 14 16 14 14 13 11 13 12 12 12 12 12 12 13
3 4 6 8 11 11 12 13 13 13 13 13 13 13 13 14 12 12 12 13 14 14 13 14 13 12 12 12 12 12 12 13
0 2 3 4 6 9 11 12 12 11 12 11 11 14 15 15 15 12 11 12 13 12 13 13 13 12 12 11 12 12 12 12

GFSFLT2_850_temp_147.txt.gz
Temp
18 22 22 21 20 19 18 18 18 18 18 18 18 17 17 17 17 17 17 17 17 17 16 16 15 15 15 15 15 15 15 16
17 21 22 21 20 19 18 18 18 17 17 17 17 17 17 17 17 17 17 17 16 16 16 15 15 15 15 15 15 15 14 14
18 17 20 21 20 19 18 18 17 17 17 17 17 16 16 17 17 17 17 17 16 16 15 15 15 15 14 14 15 14 15 14
17 17 17 20 18 17 18 17 17 17 16 16 16 15 15 15 15 17 17 17 16 16 15 15 14 14 14 14 15 15 15 15
17 16 17 20 20 18 17 15 16 16 15 15 15 15 16 15 14 15 16 16 16 16 15 15 14 15 14 13 14 14 15 15
19 17 15 18 18 20 20 16 16 15 15 15 15 15 16 16 16 14 15 15 14 14 13 13 14 15 14 14 14 15 14 15
19 17 16 15 18 17 18 17 16 16 16 15 15 15 16 16 16 15 15 15 14 14 15 14 14 15 15 14 14 14 14 13
20 18 16 15 16 16 17 16 15 17 16 16 15 15 15 15 16 16 16 16 15 15 15 16 15 14 14 14 14 14 14 13
20 20 18 16 15 15 15 16 16 16 16 16 16 17 15 15 15 16 16 16 15 15 15 15 16 15 14 14 14 14 13 12
18 19 19 17 16 15 15 16 16 16 17 16 16 19 16 15 15 16 16 16 15 15 15 15 15 15 15 14 14 14 13 13
15 16 17 17 17 16 16 16 16 16 16 16 16 17 18 15 14 15 16 16 15 15 15 15 15 15 16 15 14 14 13 13
14 14 15 16 16 16 16 16 15 16 16 16 16 15 17 18 15 15 15 15 14 14 14 15 14 14 16 15 15 14 13 13
11 12 13 15 16 16 16 16 16 16 16 16 16 16 15 16 15 14 14 14 14 14 14 14 14 13 14 15 14 13 13 13
7 9 12 13 14 16 17 17 17 17 16 16 16 16 15 16 15 14 14 13 13 13 13 13 13 13 13 13 12 12 13 12
7 9 10 11 13 14 16 17 17 17 16 16 16 15 15 15 14 14 14 14 14 13 14 13 13 13 12 12 12 12 12 12
4 6 8 9 11 13 14 16 17 17 16 16 15 15 15 14 14 14 14 14 13 14 13 13 12 12 12 12 13 13 13 13
2 4 6 8 9 10 11 13 15 16 17 16 15 14 14 14 14 14 14 13 13 13 13 14 15 17 12 12 12 12 13 13
2 3 3 5 7 8 8 11 12 15 16 17 14 13 14 13 13 13 13 13 13 12 12 13 14 14 12 12 12 12 12 12
2 2 3 2 4 5 8 9 11 12 14 15 14 14 14 14 13 13 13 13 13 11 12 14 14 14 12 13 11 11 12 12
2 1 1 2 2 2 5 8 9 11 13 13 13 12 13 13 12 12 12 12 13 10 14 13 12 13 12 12 12 12 11 12

GFSFLT2_850_temp_153.txt.gz
Temp
20 20 20 20 20 20 20 20 19 18 18 18 18 17 17 17 17 17 17 16 16 16 16 16 16 15 15 15 14 14 14 14
22 21 20 20 20 20 20 20 20 19 18 17 17 17 17 17 17 17 17 17 17 16 16 16 16 15 15 15 14 14 14 14
21 21 21 20 19 19 19 20 20 19 18 17 17 17 17 17 17 17 17 17 16 16 16 16 16 15 15 15 15 14 14 14
21 20 20 20 19 19 18 18 19 20 19 18 17 17 17 17 17 17 17 17 17 16 16 16 16 15 15 15 15 14 14 14
17 20 19 19 19 18 17 17 18 19 20 19 18 17 17 17 17 17 17 17 17 17 17 17 16 16 15 15 15 14 14 14
16 17 17 19 19 18 17 16 16 18 18 19 18 17 17 17 17 17 17 17 17 17 17 17 16 16 16 15 15 15 15 14
16 15 15 15 17 19 18 17 16 16 17 18 19 18 17 17 16 16 17 17 17 17 17 16 16 16 15 15 15 15 15 14
15 14 15 14 14 15 17 17 16 15 15 16 18 18 18 17 16 16 16 17 16 17 17 16 16 16 15 15 15 15 15 14
15 14 14 14 14 14 14 14 15 16 15 15 16 17 18 17 16 16 16 16 16 16 16 16 15 15 15 15 15 14 15 14
14 14 14 14 14 14 14 14 14 14 16 15 15 15 16 16 16 16 16 16 16 16 16 15 15 15 15 15 15 14 14 14
13 13 13 13 14 14 14 14 15 15 15 15 15 15 15 15 16 16 16 15 15 15 16 15 15 15 15 15 15 15 15 15
11 11 12 12 13 13 13 14 13 14 13 15 16 14 15 15 15 16 16 15 15 16 16 16 15 15 15 15 15 15 15 15
8 9 10 10 11 11 12 13 14 13 12 13 15 15 15 15 15 15 16 16 16 16 16 16 15 15 15 15 15 15 15 15
7 7 7 7 8 8 8 9 11 13 12 12 12 13 15 16 15 15 16 16 15 15 16 16 15 15 15 15 14 14 14 14
6 6 6 6 6 7 9 9 9 11 13 13 14 13 13 13 15 15 15 16 16 16 15 16 16 15 14 16 15 14 15 13
4 5 5 5 5 5 5 5 5 6 8 11 13 14 13 13 13 15 15 16 15 15 15 15 15 14 15 15 15 15 13 13
4 3 3 3 4 3 4 4 4 4 5 6 10 12 14 14 14 13 14 15 15 15 15 15 15 15 15 14 14 13 14 14
3 3 3 3 3 3 2 2 2 3 3 4 6 9 12 14 13 14 13 15 15 15 15 15 14 15 14 14 13 13 13 13
1 1 1 1 1 2 2 1 0 0 1 2 4 6 7 11 12 13 13 13 14 14 15 14 14 14 14 13 13 13 12 11
1 0 0 0 0 0 1 -1 -1 -1 -0 1 2 3 5 7 8 11 13 13 13 13 13 14 14 14 13 13 12 11 10 12